STARLINK-1883 (46785 NORAD) Tracking and Keplerian Element Data

This shows tracking and keplerian element data for the satellite.

Feedback or suggestion? Click here.




ElementValue
Catalog46785
NameSTARLINK-1883
Epoch Orbit1403
Epoch Day21.16668981
Epoch Year2021
RAAN86.9208
Inclination53.054
Eccentricity0.0002577
Argument of Perigee16.5105
Mean Anonmoly59.9411
Mean Motion15.61269724
Decay Rate-0.0109919
L11 46785U 20074AY 21021.16668981 -.01099190 00000-0 -14005-1 0 9996
L22 46785 53.0540 86.9208 0002577 16.5105 59.9411 15.61269724 14031

Live tracking and technical data element details for STARLINK-1883 (NORAD 46785). STARLINK-1883 can be tracked NOW for your location showing map with azimuth and elevation plus other details from your city location.

Track the satellite on the map from your city or location and see movement details for azimuth, elevation, latitude, longitude, range, height, and movement on the map or in text.







IsCatalogInMostPopularTable: catalog: 46785, numindb: 33
Update: records affected: 1



GetName: 46785 STARLINK-1883

Hit Count: updated at: Fri, 22 Jan 2021 18:26:48 GMT